Weather History for KLAF - May, 2014

Change the Weather History Date:

Tuesday, May 27, 2014

  Actual Average Record
Temperature  
Mean Temperature 75 °F 66 °F  
Max Temperature 84 °F 77 °F 93 °F (2012)
Min Temperature 66 °F 55 °F 36 °F (1992)
Degree Days  
Heating Degree Days 0 3  
Month to date heating degree days 178 150  
Since 1 July heating degree days 6546 5640  
Cooling Degree Days 10 3  
Month to date cooling degree days 65 50  
Year to date cooling degree days 66 63  
Growing Degree Days 25 (Base 50)    
Moisture  
Dew Point 62 °F    
Average Humidity 68    
Maximum Humidity 93    
Minimum Humidity 43    
Precipitation  
Precipitation 0.00 in 0.14 in 1.46 in (2000)
Month to date precipitation 3.79 3.62  
Year to date precipitation 12.83 13.45  
Sea Level Pressure  
Sea Level Pressure 29.95 in    
Wind  
Wind Speed 7 mph (WSW)    
Max Wind Speed 18 mph    
Max Gust Speed 25 mph    
Visibility 10 miles    
Events      
T = Trace of Precipitation, MM = Missing Value Source: NWS Daily Summary

Daily Weather History Graph

Daily Weather History Graph

Search for Another Location

Airport or City:

Trip Planner

Search our weather history database for the weather conditions in past years. The results will help you decide how hot, cold, wet, or windy it might be!

Date:

Astronomy

May. 27, 2014 Rise Set
Actual Time 6:22 AM EDT 9:08 PM EDT
Civil Twilight 5:50 AM EDT 9:40 PM EDT
Nautical Twilight 5:10 AM EDT 10:20 PM EDT
Astronomical Twilight 4:24 AM EDT 11:06 PM EDT
Moon 5:44 AM EDT (5/27) 8:09 PM EDT (5/27)
Length of Visible Light 15h 49m
Length of Day
14h 45m
Waning Crescent, 1% of the Moon is Illuminated
May 27
Waning Crescent
May 28
New
Jun 5
First Quarter
Jun 13
Full
Jun 19
Last Quarter

Hourly Weather History & Observations

Time (EDT) Temp. Heat Index Dew Point Humidity Pressure Visibility Wind Dir Wind Speed Gust Speed Precip Events Conditions
12:54 AM 66.9 °F - 64.9 °F 93% 30.00 in 10.0 mi Calm Calm - N/A   Clear
2:54 AM 66.0 °F - 64.0 °F 93% 29.98 in 10.0 mi Calm Calm - N/A   Clear
3:54 AM 68.0 °F - 63.0 °F 84% 29.97 in 10.0 mi Calm Calm - N/A   Clear
4:54 AM 68.0 °F - 62.1 °F 81% 29.96 in 10.0 mi Calm Calm - N/A   Partly Cloudy
5:54 AM 68.0 °F - 63.0 °F 84% 29.97 in 10.0 mi SW 4.6 mph - N/A   Partly Cloudy
6:54 AM 66.0 °F - 63.0 °F 90% 29.98 in 10.0 mi SW 3.5 mph - N/A   Scattered Clouds
7:54 AM 68.0 °F - 64.0 °F 87% 29.99 in 10.0 mi SSW 4.6 mph - N/A   Clear
8:54 AM 73.0 °F - 64.9 °F 76% 29.99 in 10.0 mi SW 5.8 mph - N/A   Clear
9:54 AM 73.9 °F - 63.0 °F 68% 29.99 in 10.0 mi SW 8.1 mph - N/A   Clear
10:54 AM 78.1 °F - 63.0 °F 60% 29.98 in 10.0 mi WSW 10.4 mph 16.1 mph N/A   Clear
11:54 AM 79.0 °F - 61.0 °F 54% 29.98 in 10.0 mi West 13.8 mph 21.9 mph N/A   Scattered Clouds
12:54 PM 82.0 °F 83.1 °F 63.0 °F 52% 29.97 in 10.0 mi West 12.7 mph 18.4 mph N/A   Clear
1:54 PM 82.9 °F 84.0 °F 63.0 °F 51% 29.96 in 10.0 mi WSW 11.5 mph - N/A   Partly Cloudy
2:54 PM 82.9 °F 83.2 °F 60.1 °F 46% 29.94 in 10.0 mi SW 10.4 mph 19.6 mph N/A   Clear
3:54 PM 84.0 °F 84.5 °F 62.1 °F 47% 29.92 in 10.0 mi West 12.7 mph - N/A   Clear
4:54 PM 82.0 °F 82.4 °F 60.1 °F 47% 29.91 in 10.0 mi West 9.2 mph - N/A   Clear
5:54 PM 82.0 °F 82.4 °F 60.1 °F 47% 29.88 in 10.0 mi WSW 12.7 mph - N/A   Clear
6:54 PM 82.9 °F 83.2 °F 60.1 °F 46% 29.88 in 10.0 mi WSW 6.9 mph 18.4 mph N/A   Clear
7:54 PM 82.0 °F 82.0 °F 57.9 °F 44% 29.89 in 10.0 mi West 9.2 mph - N/A   Clear
8:54 PM 78.1 °F - 57.9 °F 50% 29.89 in 10.0 mi West 3.5 mph - N/A   Clear
9:54 PM 73.9 °F - 59.0 °F 59% 29.91 in 10.0 mi SSW 3.5 mph - N/A   Partly Cloudy
10:54 PM 73.0 °F - 60.1 °F 64% 29.91 in 10.0 mi WNW 4.6 mph - N/A   Partly Cloudy
11:54 PM 68.0 °F - 61.0 °F 78% 29.92 in 10.0 mi NNW 5.8 mph - N/A   Clear